DW8293 Weather Reports


Display with metric or nautical units.
time (UTC)temp
F
wind
direction
speed
MPH
gust
MPH
rain 1hr
in
rain 24hr
in
rain mn
in
humidity
%
barometer
mb
20260831111803 64 254 5.0 9.0 0.00 0.11 0.11 79 1000.3
20260831110924 65 261 2.0 8.0 0.00 0.11 0.11 80 1000.7
20260831110003 65 259 2.0 11.0 0.00 0.11 0.11 81 1000.6
20260831105403 65 245 2.0 6.0 0.00 0.11 0.11 82 1000.4
20260831104503 64 239 3.0 8.0 0.00 0.11 0.11 82 1000.8
20260831103603 64 236 4.0 8.0 0.00 0.11 0.11 83 1000.8
20260831102703 64 239 2.0 9.0 0.00 0.11 0.11 85 1000.4
20260831101805 63 239 4.0 11.0 0.00 0.11 0.11 87 1000.8
20260831100903 62 230 7.0 11.0 0.00 0.11 0.11 88 1000.6
20260831100005 62 244 4.0 8.0 0.00 0.11 0.11 88 1000.6
20260831095405 62 224 3.0 11.0 0.00 0.11 0.11 88 1000.4
20260831094505 63 249 4.0 8.0 0.00 0.11 0.11 87 1000.6
20260831093603 63 251 2.0 6.0 0.00 0.11 0.11 86 1000.1
20260831092703 63 242 4.0 9.0 0.00 0.11 0.11 86 1000.3
20260831091803 63 256 4.0 9.0 0.00 0.11 0.11 85 1000.2
20260831090903 63 245 2.0 11.0 0.00 0.11 0.11 84 1000.1
20260831090005 63 256 5.0 11.0 0.00 0.11 0.11 84 1000.2
20260831085405 63 257 8.0 11.0 0.00 0.11 0.11 84 1000.2
20260831084524 62 265 6.0 9.0 0.00 0.11 0.11 85 1000.1
20260831083603 62 256 4.0 9.0 0.00 0.11 0.11 88 1000.1
20260831082703 62 253 5.0 7.0 0.00 0.11 0.11 90 1000.2
20260831081803 62 253 4.0 11.0 0.00 0.11 0.11 90 1000.0
20260831080903 62 253 6.0 11.0 0.00 0.11 0.11 90 1000.0
20260831080005 62 233 4.0 9.0 0.00 0.11 0.11 90 1000.0
20260831075424 61 234 7.0 11.0 0.00 0.11 0.11 90 1000.0
20260831074503 62 228 5.0 13.0 0.00 0.11 0.11 92 1000.2
20260831073603 63 251 4.0 11.0 0.00 0.11 0.11 90 999.8
20260831072703 62 223 6.0 9.0 0.00 0.11 0.11 91 999.8
20260831071803 62 235 4.0 11.0 0.00 0.11 0.11 93 999.7
20260831070903 62 231 4.0 13.0 0.00 0.11 0.11 93 999.6
20260831070005 61 228 5.0 9.0 0.00 0.11 0.11 96 999.5
20260831065403 60 215 3.0 7.0 0.00 0.11 0.11 99 999.5
20260831064505 60 190 3.0 7.0 0.00 0.11 0.11 99 999.2
20260831063624 60 163 2.0 4.0 0.00 0.11 0.11 99 999.4
20260831062724 60 112 1.0 2.0 0.00 0.11 0.11 99 999.3
20260831061824 60 112 0.0 4.0 0.00 0.11 0.11 99 999.4
20260831060904 59 112 2.0 4.0 0.00 0.11 0.11 99 999.2
20260831060003 59 112 0.0 2.0 0.00 0.11 0.11 99 999.3
20260831055403 59 102 2.0 2.0 0.00 0.11 0.11 99 999.1
20260831054503 59 90 1.0 2.0 0.00 0.11 0.11 99 999.1
20260831053603 59 0 0.0 0.0 0.00 0.11 0.11 99 999.1
20260831052703 58 0 0.0 0.0 0.00 0.11 0.11 99 999.1
20260831051803 58 0 0.0 0.0 0.00 0.11 0.11 99 999.0
20260831050924 58 0 0.0 0.0 0.00 0.11 0.11 99 999.0
20260831050003 58 0 0.0 0.0 0.00 0.11 0.11 99 999.2
20260831045403 58 0 0.0 0.0 0.00 0.11 0.11 99 999.1
20260831044503 58 0 0.0 0.0 0.00 0.11 0.11 99 998.9
20260831043605 58 0 0.0 0.0 0.00 0.11 0.11 99 999.1
20260831042703 57 0 0.0 0.0 0.00 0.11 0.11 99 998.9
20260831041805 58 90 0.0 2.0 0.00 0.11 0.11 99 999.0
20260831040903 58 90 0.0 2.0 0.00 0.11 0.11 99 998.9
20260831040024 58 0 0.0 0.0 0.00 0.11 0.11 99 998.8
20260831035406 58 0 0.0 0.0 0.00 0.11 0.11 99 998.8
20260831034503 58 0 0.0 0.0 0.00 0.11 0.11 99 998.7
20260831033603 58 0 0.0 0.0 0.00 0.11 0.11 99 998.8
20260831032725 58 0 0.0 0.0 0.00 0.11 0.11 99 998.7
20260831031824 58 0 0.0 0.0 0.00 0.11 0.11 99 998.5
20260831030905 58 0 0.0 0.0 0.00 0.11 0.11 99 998.6
20260831030003 58 0 0.0 0.0 0.00 0.11 0.11 99 998.4
20260831025403 58 0 0.0 0.0 0.00 0.11 0.11 99 998.4
20260831024503 58 0 0.0 0.0 0.00 0.11 0.11 99 998.6
20260831023603 57 0 0.0 0.0 0.00 0.11 0.11 99 998.6
20260831022703 58 0 0.0 0.0 0.00 0.11 0.11 99 998.6
20260831021803 58 0 0.0 0.0 0.01 0.11 0.11 99 998.8
20260831020903 58 0 0.0 0.0 0.02 0.11 0.11 99 998.7
20260831020003 58 0 0.0 0.0 0.04 0.11 0.11 99 998.6
20260831015403 58 0 0.0 0.0 0.05 0.11 0.11 99 998.7
20260831014505 58 0 0.0 0.0 0.06 0.11 0.11 99 998.8
20260831013603 58 0 0.0 0.0 0.07 0.11 0.11 99 998.7
20260831012705 58 0 0.0 0.0 0.07 0.11 0.11 99 999.0
20260831011805 58 0 0.0 0.0 0.07 0.09 0.09 99 998.7
20260831010927 58 0 0.0 0.0 0.07 0.08 0.08 99 998.8
20260831010005 58 0 0.0 0.0 0.07 0.07 0.07 99 998.9
20260831005403 58 0 0.0 0.0 0.06 0.06 0.06 99 998.8
20260831004503 58 0 0.0 0.0 0.05 0.05 0.05 99 998.7
20260831003603 58 0 0.0 0.0 0.04 0.04 0.04 99 998.8
20260831002704 58 90 0.0 2.0 0.04 0.04 0.04 99 998.9
20260831001826 57 90 0.0 2.0 0.02 0.02 0.02 99 999.0
20260831000925 58 90 0.0 2.0 0.01 0.01 0.01 99 998.9
20260831000005 58 0 0.0 0.0 0.00 0.00 0.00 99 998.8
20260830235403 58 0 0.0 0.0 0.00 0.00 0.00 99 999.0
20260830234503 58 0 0.0 0.0 0.00 0.00 0.00 99 998.9
20260830233603 57 0 0.0 0.0 0.00 0.00 0.00 99 999.0
20260830232703 57 0 0.0 0.0 0.00 0.00 0.00 99 998.9
20260830231824 57 0 0.0 0.0 0.00 0.00 0.00 99 998.8
20260830230904 58 0 0.0 0.0 0.00 0.00 0.00 99 998.7
20260830230003 57 0 0.0 0.0 0.00 0.00 0.00 99 998.8
20260830225404 58 0 0.0 0.0 0.00 0.00 0.00 99 998.9
20260830224503 57 90 0.0 2.0 0.00 0.00 0.00 99 998.8
20260830223604 58 90 1.0 2.0 0.00 0.00 0.00 99 998.7
20260830222704 57 0 0.0 0.0 0.00 0.01 0.00 99 998.8
20260830221826 57 0 0.0 0.0 0.00 0.01 0.00 99 998.6
20260830220904 58 0 0.0 0.0 0.00 0.01 0.00 99 998.5
20260830220025 58 0 0.0 0.0 0.00 0.01 0.00 99 998.6
20260830215403 58 0 0.0 0.0 0.00 0.01 0.01 99 998.5
20260830214503 58 0 0.0 0.0 0.00 0.01 0.01 99 998.8
20260830213603 58 0 0.0 0.0 0.00 0.01 0.01 99 998.9
20260830212703 59 0 0.0 0.0 0.00 0.01 0.01 99 998.8
20260830211824 59 0 0.0 0.0 0.00 0.01 0.01 99 998.8
20260830210903 58 0 0.0 0.0 0.00 0.01 0.01 99 998.7
20260830210024 58 0 0.0 0.0 0.00 0.01 0.01 98 998.8
20260830205403 59 0 0.0 0.0 0.00 0.01 0.01 98 998.8
20260830204503 59 112 0.0 2.0 0.00 0.01 0.01 98 998.4
20260830203605 59 112 0.0 2.0 0.00 0.01 0.01 97 998.9
20260830202703 59 112 0.0 2.0 0.00 0.01 0.01 97 998.8
20260830201803 60 112 0.0 2.0 0.00 0.01 0.01 96 998.9
20260830200903 60 112 1.0 2.0 0.00 0.01 0.01 96 998.9
20260830200003 61 112 2.0 2.0 0.00 0.01 0.01 96 998.8
20260830195406 61 112 2.0 2.0 0.00 0.01 0.01 96 998.9
20260830194503 60 112 1.0 2.0 0.00 0.01 0.01 96 998.7
20260830193603 60 0 0.0 0.0 0.00 0.01 0.01 95 998.9
20260830192703 60 112 0.0 2.0 0.00 0.01 0.01 94 998.8
20260830191805 61 112 0.0 2.0 0.00 0.01 0.01 94 998.7
20260830190907 61 112 0.0 2.0 0.00 0.01 0.01 93 998.8
20260830190003 62 112 0.0 2.0 0.00 0.01 0.01 92 998.8
20260830185403 62 112 0.0 2.0 0.00 0.01 0.01 91 998.8
20260830184503 62 126 2.0 4.0 0.00 0.01 0.01 90 998.6
20260830183603 63 139 2.0 7.0 0.00 0.01 0.01 90 998.9
20260830182705 63 137 2.0 6.0 0.00 0.01 0.01 89 998.7
20260830181824 63 151 3.0 6.0 0.00 0.01 0.01 88 998.8
20260830180903 63 142 2.0 4.0 0.00 0.01 0.01 88 998.9
20260830180003 64 153 3.0 6.0 0.00 0.01 0.01 87 998.9
20260830175424 64 156 2.0 7.0 0.00 0.01 0.01 86 998.7
20260830174503 64 163 4.0 7.0 0.00 0.01 0.01 86 998.6
20260830173603 64 183 4.0 11.0 0.00 0.01 0.01 85 998.7
20260830172705 64 161 3.0 8.0 0.00 0.01 0.01 85 998.8
20260830171805 65 175 4.0 8.0 0.00 0.01 0.01 84 998.6
20260830170903 65 156 4.0 8.0 0.00 0.01 0.01 83 998.7
20260830170003 65 147 3.0 6.0 0.00 0.01 0.01 83 998.7
20260830165403 65 153 2.0 7.0 0.00 0.01 0.01 82 998.5
20260830164524 65 141 3.0 7.0 0.00 0.01 0.01 82 998.6
20260830163603 65 166 2.0 9.0 0.00 0.01 0.01 82 998.6
20260830162703 65 152 2.0 8.0 0.00 0.01 0.01 82 998.6
20260830161803 65 164 4.0 11.0 0.00 0.01 0.01 82 998.7
20260830160903 65 170 2.0 8.0 0.00 0.01 0.01 80 998.5
20260830160005 65 174 2.0 7.0 0.00 0.01 0.01 81 998.9
20260830155403 65 139 2.0 7.0 0.00 0.01 0.01 82 998.8
20260830154503 65 175 4.0 8.0 0.00 0.01 0.01 81 998.5
20260830153606 65 163 4.0 8.0 0.00 0.01 0.01 82 998.8
20260830152705 65 177 3.0 11.0 0.00 0.01 0.01 81 998.9
20260830151803 65 179 4.0 13.0 0.00 0.01 0.01 81 998.9
20260830150906 65 220 4.0 13.0 0.00 0.01 0.01 80 998.9
20260830150026 65 201 8.0 14.0 0.00 0.01 0.01 79 998.8
20260830145403 66 198 9.0 17.0 0.00 0.01 0.01 78 998.9
20260830144503 67 209 11.0 15.0 0.00 0.01 0.01 74 999.1
20260830143605 68 227 6.0 16.0 0.00 0.01 0.01 70 998.8
20260830142703 68 173 4.0 11.0 0.00 0.01 0.01 70 998.8
20260830141803 69 186 2.0 13.0 0.00 0.01 0.01 68 998.7
20260830140903 69 205 5.0 13.0 0.00 0.01 0.01 68 998.8
20260830140005 68 202 4.0 8.0 0.00 0.01 0.01 69 999.0
20260830135426 69 193 3.0 11.0 0.00 0.01 0.01 69 998.8
20260830134503 69 185 6.0 8.0 0.00 0.01 0.01 68 998.8
20260830133603 68 178 4.0 13.0 0.00 0.01 0.01 70 999.0
20260830132703 68 180 5.0 9.0 0.00 0.01 0.01 69 998.8
20260830131804 68 202 4.0 15.0 0.00 0.01 0.01 70 999.0
20260830130903 68 187 8.0 15.0 0.00 0.01 0.01 69 998.7
20260830130003 69 205 5.0 11.0 0.00 0.01 0.01 69 998.5
20260830125405 69 216 5.0 11.0 0.00 0.01 0.01 67 998.6
20260830124503 69 218 8.0 15.0 0.00 0.01 0.01 69 998.6
20260830123603 68 186 3.0 11.0 0.00 0.01 0.01 70 998.7
20260830122703 68 191 2.0 8.0 0.00 0.01 0.01 72 998.8
20260830121824 67 197 2.0 8.0 0.00 0.01 0.01 73 998.8
20260830120905 67 200 4.0 13.0 0.00 0.01 0.01 73 998.9
20260830120024 67 188 4.0 11.0 0.00 0.01 0.01 73 998.9
20260830115405 67 171 6.0 13.0 0.00 0.01 0.01 73 999.0
20260830114526 67 199 5.0 9.0 0.00 0.01 0.01 73 999.0
20260830113626 67 194 4.0 11.0 0.00 0.01 0.01 72 998.9
20260830112705 66 201 5.0 14.0 0.00 0.01 0.01 73 999.1